OBJECT H, 61742

Orbit data source: Space-Track

You're viewing an Uncataloged Satellite

Recently launched and/or uncataloged satellites may have evolving metadata. Metadata may include but not limited to: Owner, Maufacturer, Bus, Motor, and Mission.

OBJECT H, 61742 is a satellite in SSO that was launched on Mon, 04 Nov 2024 UTC via a SOYUZ-2-1B launch vehicle from the Vostochny Cosmodrome (VOSTO). Unknown objects in Earth's orbit typically refer to objects detected orbiting the Earth but have not yet been identified or cataloged. These objects could be anything from previously untracked satellites, spent rocket stages, debris from satellite collisions, or even natural meteoroids temporarily captured by Earth's gravity.

Loading next visibility...
Identifier
61742, 2024-199H
Orbit
SSO
Country
Flag of TBDTBD
Related business
Manufacturer
Sputniks
Mission
Operational Commercial Communications
Bus & Motor
CUBESAT 3U?, Unknown motor
Mass
3 kg wet, 3 kg dry
Launch date (UTC)
2024-11-04 (2 years ago)
Launch vehicle
SOYUZ-2-1B
Launch site
Vostochny Cosmodrome (VOSTO)
Object type
Unknown
Shape & HBR
Box, 0.1 m
Radar Cross Section
0.035 m², Small (<0.1 m²)

Expand to show TLE details & history
Last TLE update: 6 hours ago

TLE from 6 hours ago
0 OBJECT H
1 61742U 24199H   26128.15470036  .00002173  00000-0  19950-3 0  9990
2 61742  97.3273 328.7926 0012149 191.7362 168.3579 14.95741446125783
Epoch: 2026-05-08T03:42Z
TLE epoch observation values (Epoch: 2026-05-08T03:42:46.111Z)
Latitude
0.00002°
Longitude
47.10991°
Altitude
591.414 km
Speed
7.56 km/s
True Right ascension
21h 55m 10s
True Declination
0° 00' 00"
Sunlit
Object was in daylight at epoch
Visualization orbit readout
Latitude
Unknown
Longitude
Unknown
Altitude
Unknown
Speed
Unknown
Apparent Right ascension
Unknown
Apparent Declination
Unknown
Sunlit
N/A
Visualization observer readout
Local Sidereal Time
17:53:40
Azimuth
Unknown
Elevation
Unknown
Doppler factor
Unknown
Orbital elements
Apogee altitude
585.517 km
Perigee altitude
568.617 km
Semi-major axis
6,955.204 km
Eccentricity
0.00121
Inclination
97.3273°
RAAN
328.7926°
Arg. of periapsis
191.7362°
True anomaly
168.38595°
Mean anomaly
168.3579°
Eccentric anomaly
168.37193°
Mean motion
3.74178 °/min
Orbital period
96.21 mins
BSTAR
0.0001995
Loading maneuver chart data...
Computing Atmospheric mass density...
Loading historical data...
Loading historical data...
Loading historical data...
Loading historical data...
Loading historical data...
Loading historical data...
Loading historical data...

Documentation

Showing up to 5 results
|